Flag for Germany Weather past 2 weeks in Datteln, North Rhine-Westphalia, Germany

Now
61 °F

Fog.


Feels Like: 61 °F
Forecast: 44 / 59 °F
Wind: 2 mph from North

Location: Dortmund / Wickede

Current Time: Sep 21, 2014 at 6:14:06 AM

Latest Report: Sep 21, 2014 at 5:50 AM


Visibility: 1 mi

Pressure: 29.95 "Hg

Humidity: 94%

Dew point: 59 °F

Location of DattelnLocation

Historic Weather in Datteln — Graph

°F

Datteln temperature yesterday

Maximum temperature yesterday: 70 °F (at 12:20 PM)
Minimum temperature yesterday: 55 °F (at 7:20 AM)
Average temperature yesterday: 62 °F

Past Weeks' High & Low Weather Summary

 TemperatureHumidityPressure
High77 °F (Sep 6, 1:50 PM)94% (Sep 7, 5:50 AM)30.24 "Hg (Sep 7, 5:50 AM)
Low43 °F (Sep 12, 5:50 AM)39% (Sep 17, 3:20 PM)29.83 "Hg (Sep 19, 5:20 AM)
Average62 °F75%30.03 "Hg
* Reported Sep 5 10:20 PM — Sep 20 10:50 PM, Datteln, Weather by CustomWeather, © 2014

Note: Actual official high and low records may vary slightly from our data, if they occured in-between our weather recording intervals... More about our weather records

Advertising

Datteln weather history for previous 24 hours

 ConditionsComfort  
Time TempWeatherWind HumidityBarometerVisibility
10:50 PM
Sep 20
61 °FClear.7 mph83%29.95 "Hg10 mi
10:20 PM63 °FClear.6 mph83%29.95 "Hg10 mi
9:50 PM63 °FClear.3 mph83%29.95 "Hg10 mi
9:20 PM61 °FScattered showers. Clear.2 mph88%29.95 "HgN/A
8:50 PM61 °FScattered showers. Passing clouds.9 mph88%29.95 "HgN/A
8:20 PM61 °FSprinkles. Scattered clouds.9 mph88%29.95 "HgN/A
7:50 PM61 °FThundershowers. Scattered clouds.9 mph94%29.95 "HgN/A
1:50 PM70 °FSunny.6 mph78%29.95 "Hg10 mi
1:20 PM70 °FScattered showers. Partly sunny.3 mph83%29.95 "HgN/A
12:50 PM70 °FScattered showers. Passing clouds.5 mph78%29.95 "HgN/A
12:20 PM70 °FScattered showers. Passing clouds.N/A88%29.95 "HgN/A
11:50 AMN/ASprinkles.6 mphN/A29.95 "Hg5 mi
11:20 AMN/ASprinkles.6 mphN/A29.95 "Hg4 mi
10:20 AM64 °FThundershowers. Fog.3 mph88%29.95 "Hg2 mi
9:50 AM63 °FFog.5 mph88%29.95 "Hg3 mi
9:20 AM63 °FFog.2 mph94%29.95 "Hg2 mi
8:50 AM63 °FFog.5 mph94%29.95 "Hg3 mi
8:20 AM61 °FFog.6 mph94%29.95 "Hg3 mi
7:50 AM59 °FFog.2 mph88%29.92 "Hg3 mi
7:20 AM55 °FFog.3 mph94%29.92 "Hg3 mi
6:50 AM57 °FClear.3 mph94%29.92 "Hg4 mi
6:20 AM59 °FClear.2 mph94%29.92 "Hg10 mi
Weather by CustomWeather, © 2014

See weather overviewHow to use our weather pages